Content
SEND FEEDBACK

Daily
Averages
Monthly
Summary
United States of America

HESPERIA, CALIFORNIA


Home > North America > United States > California
Elevation: 975 meters     Latitude: 34 25N     Longitude: 117 18W

WEATHER
 
SELECT A DAY
Number of Records: 115,553;   Date Range: 12/30/04 - 11/26/14
 
SHARE

PRINT THIS DATA

[ ← Previous Day ]
WEATHER ALMANAC - 31 JANUARY, 2013
[ Next Day → ]
[ °F ]   °C
Weather ElementAverageHighLow
Temperature8.4 °C18 °C (12:55 pm) (11:55 am)
Dewpoint-1.7 °C0 °C (8:15 am) (7:00 pm)
Humidity53.3 %81 % (2:15 am)26 % (12:55 pm)
Barometer1024.4 hPa1026.4 hPa (9:15 am)1022.7 hPa (4:15 pm)
Wind Speed6.4 km/h16.7 km/h (1:35 pm)
Wind Gust29.6 km/h (1:15 pm)
Weather ElementAverage
Visibility16.1 km
Wind DirectionSSE (141.9 °)

Weather ElementTotal
Precipitation---
Heating Degree Days18.2 (Base 18.3)
Averaged from 69 records on 31 January, 2013
WEATHER CONDITIONS BREAKOUT
WIND DIRECTION BREAKOUT
WEATHER BY HOUR - 31 JANUARY, 2013
[ °F ]   °C
Local TimeTemperatureDewpointHumidityBarometerVisibilityWind DirectionWind SpeedGust SpeedPrecipitationEventsConditions
12:35 AM5 °C-1 °C65 %1025.7 hPa16.1 kmSE (130°)11.1 km/hClear
12:55 AM5 °C-1 °C65 %1025.4 hPa16.1 kmSE (140°)13 km/hClear
1:15 AM4 °C-1 °C70 %1025.7 hPa16.1 kmSE (140°)13 km/hClear
1:35 AM4 °C-1 °C70 %1025.7 hPa16.1 kmESE (120°)7.4 km/hClear
1:55 AM4 °C-1 °C70 %1025.7 hPa16.1 kmCalmClear
2:15 AM2 °C-1 °C81 %1025.7 hPa16.1 kmCalmClear
2:35 AM2 °C-2 °C75 %1025.7 hPa16.1 kmSSW (200°)5.6 km/hClear
2:55 AM1 °C-2 °C81 %1025.7 hPa16.1 kmSouth (170°)7.4 km/hClear
3:15 AM1 °C-2 °C81 %1025.4 hPa16.1 kmSouth (180°)9.3 km/hClear
3:35 AM2 °C-2 °C75 %1025.4 hPa16.1 kmSouth (190°)7.4 km/hClear
3:55 AM1 °C-2 °C81 %1025.1 hPa16.1 kmSSW (200°)5.6 km/hClear
4:15 AM1 °C-2 °C81 %1025.1 hPa16.1 kmSouth (180°)5.6 km/hClear
4:35 AM1 °C-2 °C81 %1025.1 hPa16.1 kmCalmClear
4:55 AM1 °C-2 °C81 %1025.1 hPa16.1 kmSE (140°)5.6 km/hClear
5:15 AM1 °C-2 °C81 %1025.1 hPa16.1 kmSSE (160°)7.4 km/hClear
5:35 AM1 °C-2 °C81 %1025.1 hPa16.1 kmSE (140°)7.4 km/hClear
5:55 AM1 °C-2 °C81 %1025.4 hPa16.1 kmSE (140°)11.1 km/hClear
6:15 AM2 °C-2 °C75 %1025.1 hPa16.1 kmESE (120°)9.3 km/hClear
6:35 AM1 °C-2 °C81 %1025.4 hPa16.1 kmESE (110°)5.6 km/hClear
6:55 AM1 °C-2 °C81 %1025.4 hPa16.1 kmSE (140°)7.4 km/hClear
7:15 AM2 °C-2 °C75 %1025.4 hPa16.1 kmCalmClear
7:35 AM3 °C-1 °C75 %1025.7 hPa16.1 kmSE (130°)7.4 km/hClear
7:55 AM4 °C-1 °C70 %1025.7 hPa16.1 kmSSE (150°)5.6 km/hClear
8:15 AM6 °C0 °C66 %1026.1 hPa16.1 kmCalmClear
8:35 AM7 °C0 °C61 %1026.1 hPa16.1 kmSSE (150°)5.6 km/hClear
8:55 AM8 °C0 °C57 %1026.1 hPa16.1 kmCalmClear
9:15 AM9 °C-1 °C50 %1026.4 hPa16.1 kmCalmClear
9:35 AM11 °C-1 °C44 %1026.4 hPa16.1 kmCalm
9:55 AM11 °C-1 °C44 %1026.4 hPa16.1 kmCalm
10:15 AM12 °C-1 °C41 %1026.4 hPa16.1 kmCalm
10:35 AM13 °C-1 °C38 %1026.4 hPa16.1 kmCalmClear
10:55 AM14 °C-1 °C36 %1026.4 hPa16.1 kmCalmClear
11:35 AM16 °C-1 °C31 %1026.1 hPaCalmClear
11:55 AM-17.8 °C-17.8 °C1026.1 hPaNorth
12:15 PM17 °C-2 °C27 %1025.4 hPa16.1 kmNorth (350°)5.6 km/hClear
12:35 PM17 °C-2 °C27 %1025.4 hPa16.1 kmNNW (340°)13 km/hClear
12:55 PM18 °C-2 °C26 %1025.1 hPa16.1 kmNorth (350°)14.8 km/hClear
1:15 PM18 °C-2 °C26 %1024.4 hPa16.1 kmNNW (340°)14.8 km/h29.6 km/hClear
1:35 PM18 °C-2 °C26 %1024 hPa16.1 kmNorth (350°)16.7 km/hClear
1:55 PM18 °C-2 °C26 %1024 hPa16.1 kmNNW (340°)13 km/hClear
2:15 PM18 °C-2 °C26 %1023.7 hPa16.1 kmNorth (350°)13 km/hClear
2:35 PM18 °C-2 °C26 %1023.4 hPa16.1 kmNorth (350°)14.8 km/hClear
2:55 PM18 °C-2 °C26 %1023.4 hPa16.1 kmNorth (10°)13 km/hClear
3:15 PM18 °C-2 °C26 %1023 hPa16.1 kmNNW (330°)9.3 km/hClear
3:35 PM18 °C-2 °C26 %1023 hPa16.1 kmNorth (350°)13 km/hClear
3:55 PM17 °C-2 °C27 %1023 hPa16.1 kmNorth (360°)7.4 km/hClear
4:15 PM17 °C-2 °C27 %1022.7 hPa16.1 kmNorth (350°)9.3 km/hClear
4:35 PM17 °C-2 °C27 %1022.7 hPa16.1 kmNNW (330°)11.1 km/hClear
4:55 PM16 °C-2 °C29 %1022.7 hPa16.1 kmNW (320°)7.4 km/hClear
5:15 PM16 °C-2 °C29 %1022.7 hPa16.1 kmCalmClear
5:35 PM15 °C-2 °C31 %1022.7 hPa16.1 kmCalmClear
5:55 PM13 °C-2 °C36 %1022.7 hPa16.1 kmCalmClear
6:15 PM12 °C-2 °C38 %1022.7 hPa16.1 kmCalmClear
6:35 PM12 °C-2 °C38 %1022.7 hPa16.1 kmCalmClear
6:55 PM11 °C-1 °C44 %1023 hPa16.1 kmCalmClear
7:15 PM11 °C-1 °C44 %1023 hPa16.1 kmCalmClear
7:35 PM9 °C-1 °C50 %1023 hPa16.1 kmCalmClear
7:55 PM9 °C-1 °C50 %1023 hPa16.1 kmSouth (170°)7.4 km/hClear
8:15 PM8 °C-1 °C53 %1023.4 hPa16.1 kmSouth (180°)7.4 km/hClear
8:35 PM8 °C-1 °C53 %1023.4 hPa16.1 kmSouth (170°)7.4 km/hClear
8:55 PM7 °C-1 °C57 %1023.4 hPa16.1 kmSE (140°)7.4 km/hClear
9:15 PM7 °C-1 °C57 %1023.4 hPa16.1 kmSE (140°)7.4 km/hClear
9:35 PM7 °C-1 °C57 %1023.4 hPa16.1 kmSE (130°)7.4 km/hClear
9:55 PM6 °C-1 °C61 %1023.4 hPa16.1 kmSSW (200°)7.4 km/hClear
10:15 PM8 °C-1 °C53 %1023.7 hPa16.1 kmSouth (190°)5.6 km/hClear
10:35 PM6 °C-1 °C61 %1023.7 hPa16.1 kmSouth (170°)7.4 km/hClear
10:55 PM6 °C-1 °C61 %1023.7 hPa16.1 kmSSE (160°)9.3 km/hClear
11:15 PM6 °C-1 °C61 %1023.4 hPa16.1 kmSSE (150°)13 km/hClear
11:35 PM5 °C-1 °C65 %1023.4 hPa16.1 kmSE (140°)11.1 km/hClear
Hourly data recorded from KVCV, located 0 kilometers away from Hesperia, California







STORIES FROM OUR PARTNERS